Zurück zum Katalog

STARLINK-36301

AktivKommunikationVLEO
NORAD 67932·PAYLOAD·🇺🇸 United States

Gestartet Feb 24, 2026 von Vandenberg Space Force Base

Loading…

Nächste Überflüge (nächste 24 Stunden)

TLE

AktuellSource: CelesTrak SupGP

Epoche: Sep 15, 2026, 04:11 UTC

1 67932C 26037A   26258.17479167  .00000075  00000+0  27149-5 0  2587
2 67932  43.0032 201.0396 0001434 273.2434 137.7134 15.27570690    18

Verfolge STARLINK-36301 in Echtzeit mit AllMySat

Download on the App Store